| time (UTC) | temp F | wind direction | speed MPH | gust MPH | rain 1hr in | rain 24hr in | rain mn in | humidity % | barometer mb |
| 20260906211557 | 92 | 135 | 14.0 | 24.0 | 0.00 | 0.00 | 0.00 | 21 | 1009.8 |
| 20260906210104 | 93 | 117 | 19.0 | 33.0 | 0.00 | 0.00 | 0.00 | 21 | 1009.9 |
| 20260906204600 | 93 | 157 | 18.0 | 25.0 | 0.00 | 0.00 | 0.00 | 21 | 1010.2 |
| 20260906203051 | 93 | 155 | 18.0 | 28.0 | 0.00 | 0.00 | 0.00 | 22 | 1010.3 |
| 20260906201551 | 92 | 184 | 9.0 | 28.0 | 0.00 | 0.00 | 0.00 | 21 | 1010.3 |
| 20260906200047 | 92 | 166 | 10.0 | 26.0 | 0.00 | 0.00 | 0.00 | 20 | 1010.5 |
| 20260906194601 | 93 | 151 | 14.0 | 28.0 | 0.00 | 0.00 | 0.00 | 19 | 1010.7 |
| 20260906193044 | 93 | 132 | 18.0 | 28.0 | 0.00 | 0.00 | 0.00 | 19 | 1011.1 |
| 20260906191545 | 92 | 170 | 14.0 | 22.0 | 0.00 | 0.00 | 0.00 | 20 | 1011.1 |
| 20260906190040 | 92 | 163 | 12.0 | 23.0 | 0.00 | 0.00 | 0.00 | 21 | 1011.2 |
| 20260906184539 | 90 | 143 | 16.0 | 25.0 | 0.00 | 0.00 | 0.00 | 23 | 1011.3 |
| 20260906183056 | 91 | 146 | 17.0 | 25.0 | 0.00 | 0.00 | 0.00 | 23 | 1012.0 |
| 20260906181542 | 90 | 157 | 10.0 | 30.0 | 0.00 | 0.00 | 0.00 | 23 | 1012.1 |
| 20260906180050 | 90 | 115 | 10.0 | 21.0 | 0.00 | 0.00 | 0.00 | 23 | 1012.1 |
| 20260906174530 | 90 | 192 | 9.0 | 19.0 | 0.00 | 0.00 | 0.00 | 24 | 1012.3 |
| 20260906173029 | 90 | 125 | 18.0 | 25.0 | 0.00 | 0.00 | 0.00 | 26 | 1012.4 |
| 20260906171527 | 89 | 181 | 14.0 | 25.0 | 0.00 | 0.00 | 0.00 | 26 | 1012.4 |
| 20260906170024 | 88 | 155 | 9.0 | 17.0 | 0.00 | 0.00 | 0.00 | 28 | 1012.6 |
| 20260906164521 | 88 | 163 | 11.0 | 32.0 | 0.00 | 0.00 | 0.00 | 28 | 1012.7 |
| 20260906163019 | 87 | 203 | 4.0 | 17.0 | 0.00 | 0.00 | 0.00 | 30 | 1013.0 |
| 20260906161535 | 87 | 14 | 4.0 | 19.0 | 0.00 | 0.00 | 0.00 | 31 | 1012.8 |
| 20260906160016 | 87 | 216 | 5.0 | 12.0 | 0.00 | 0.00 | 0.00 | 33 | 1012.7 |
| 20260906154513 | 85 | 248 | 4.0 | 12.0 | 0.00 | 0.00 | 0.00 | 35 | 1012.7 |
| 20260906153011 | 85 | 238 | 7.0 | 13.0 | 0.00 | 0.00 | 0.00 | 36 | 1012.5 |
| 20260906151508 | 84 | 238 | 8.0 | 11.0 | 0.00 | 0.00 | 0.00 | 37 | 1012.5 |
| 20260906150003 | 83 | 195 | 5.0 | 10.0 | 0.00 | 0.00 | 0.00 | 39 | 1012.5 |
| 20260906144600 | 82 | 215 | 6.0 | 12.0 | 0.00 | 0.00 | 0.00 | 41 | 1012.4 |
| 20260906143058 | 82 | 205 | 8.0 | 11.0 | 0.00 | 0.00 | 0.00 | 41 | 1012.5 |
| 20260906141617 | 80 | 251 | 7.0 | 13.0 | 0.00 | 0.00 | 0.00 | 42 | 1012.4 |
| 20260906140055 | 79 | 202 | 9.0 | 11.0 | 0.00 | 0.00 | 0.00 | 44 | 1012.2 |
| 20260906134553 | 78 | 197 | 6.0 | 9.0 | 0.00 | 0.00 | 0.00 | 45 | 1012.2 |
| 20260906133058 | 75 | 209 | 6.0 | 9.0 | 0.00 | 0.00 | 0.00 | 47 | 1012.0 |
| 20260906131601 | 74 | 189 | 7.0 | 10.0 | 0.00 | 0.00 | 0.00 | 48 | 1011.9 |
| 20260906130055 | 73 | 190 | 7.0 | 9.0 | 0.00 | 0.00 | 0.00 | 49 | 1011.8 |
| 20260906124546 | 72 | 195 | 6.0 | 8.0 | 0.00 | 0.00 | 0.00 | 50 | 1011.5 |
| 20260906123044 | 72 | 197 | 6.0 | 8.0 | 0.00 | 0.00 | 0.00 | 49 | 1011.3 |
| 20260906121542 | 72 | 181 | 6.0 | 8.0 | 0.00 | 0.00 | 0.00 | 48 | 1011.3 |
| 20260906120041 | 72 | 179 | 8.0 | 10.0 | 0.00 | 0.00 | 0.00 | 48 | 1011.3 |
| 20260906114546 | 72 | 203 | 6.0 | 9.0 | 0.00 | 0.00 | 0.00 | 48 | 1011.3 |
| 20260906113035 | 73 | 181 | 7.0 | 10.0 | 0.00 | 0.00 | 0.00 | 46 | 1011.2 |
| 20260906111541 | 73 | 188 | 7.0 | 9.0 | 0.00 | 0.00 | 0.00 | 46 | 1011.2 |
| 20260906110030 | 73 | 189 | 7.0 | 9.0 | 0.00 | 0.00 | 0.00 | 46 | 1011.1 |
| 20260906104532 | 74 | 182 | 7.0 | 9.0 | 0.00 | 0.00 | 0.00 | 46 | 1010.9 |
| 20260906103026 | 75 | 190 | 9.0 | 10.0 | 0.00 | 0.00 | 0.00 | 45 | 1010.7 |
| 20260906101529 | 75 | 184 | 8.0 | 10.0 | 0.00 | 0.00 | 0.00 | 44 | 1010.7 |
| 20260906100029 | 75 | 187 | 7.0 | 10.0 | 0.00 | 0.00 | 0.00 | 43 | 1010.9 |
| 20260906094518 | 76 | 171 | 7.0 | 10.0 | 0.00 | 0.00 | 0.00 | 43 | 1010.8 |
| 20260906093016 | 76 | 182 | 7.0 | 9.0 | 0.00 | 0.00 | 0.00 | 42 | 1010.8 |
| 20260906091513 | 76 | 200 | 7.0 | 10.0 | 0.00 | 0.00 | 0.00 | 41 | 1010.7 |
| 20260906090010 | 77 | 167 | 8.0 | 13.0 | 0.00 | 0.00 | 0.00 | 41 | 1010.6 |
| 20260906084511 | 77 | 161 | 9.0 | 11.0 | 0.00 | 0.00 | 0.00 | 40 | 1010.5 |
| 20260906083005 | 78 | 161 | 9.0 | 13.0 | 0.00 | 0.00 | 0.00 | 39 | 1010.5 |
| 20260906081502 | 78 | 170 | 11.0 | 14.0 | 0.00 | 0.00 | 0.00 | 38 | 1010.5 |
| 20260906080100 | 79 | 185 | 12.0 | 19.0 | 0.00 | 0.00 | 0.00 | 37 | 1010.6 |
| 20260906074557 | 79 | 193 | 13.0 | 22.0 | 0.00 | 0.00 | 0.00 | 37 | 1010.7 |
| 20260906073056 | 80 | 171 | 14.0 | 21.0 | 0.00 | 0.00 | 0.00 | 37 | 1010.4 |
| 20260906071554 | 80 | 178 | 15.0 | 21.0 | 0.00 | 0.00 | 0.00 | 36 | 1010.3 |
| 20260906070053 | 80 | 162 | 14.0 | 22.0 | 0.00 | 0.00 | 0.00 | 36 | 1010.3 |
| 20260906064551 | 80 | 153 | 16.0 | 22.0 | 0.00 | 0.00 | 0.00 | 36 | 1010.5 |
| 20260906063048 | 80 | 158 | 14.0 | 19.0 | 0.00 | 0.00 | 0.00 | 37 | 1010.6 |
| 20260906061549 | 80 | 161 | 12.0 | 19.0 | 0.00 | 0.00 | 0.00 | 37 | 1010.7 |
| 20260906060053 | 80 | 170 | 14.0 | 20.0 | 0.00 | 0.00 | 0.00 | 36 | 1010.8 |
| 20260906054546 | 80 | 148 | 14.0 | 19.0 | 0.00 | 0.00 | 0.00 | 36 | 1010.9 |
| 20260906053040 | 80 | 144 | 13.0 | 17.0 | 0.00 | 0.00 | 0.00 | 36 | 1010.9 |
| 20260906051539 | 80 | 139 | 13.0 | 17.0 | 0.00 | 0.00 | 0.00 | 37 | 1010.9 |
| 20260906050035 | 80 | 142 | 11.0 | 13.0 | 0.00 | 0.00 | 0.00 | 37 | 1010.9 |
| 20260906044535 | 81 | 142 | 11.0 | 13.0 | 0.00 | 0.00 | 0.00 | 36 | 1011.0 |
| 20260906043035 | 81 | 150 | 9.0 | 12.0 | 0.00 | 0.00 | 0.00 | 36 | 1011.1 |
| 20260906041535 | 82 | 153 | 9.0 | 12.0 | 0.00 | 0.00 | 0.00 | 35 | 1011.2 |
| 20260906040035 | 82 | 146 | 9.0 | 13.0 | 0.00 | 0.00 | 0.00 | 35 | 1011.0 |
| 20260906034551 | 82 | 138 | 11.0 | 14.0 | 0.00 | 0.00 | 0.00 | 34 | 1010.9 |
| 20260906033035 | 83 | 134 | 12.0 | 16.0 | 0.00 | 0.00 | 0.00 | 33 | 1011.1 |
| 20260906031534 | 84 | 139 | 12.0 | 17.0 | 0.00 | 0.00 | 0.00 | 32 | 1010.7 |
| 20260906030033 | 84 | 138 | 12.0 | 15.0 | 0.00 | 0.00 | 0.00 | 32 | 1010.6 |
| 20260906024531 | 84 | 140 | 11.0 | 13.0 | 0.00 | 0.00 | 0.00 | 32 | 1010.4 |
| 20260906023031 | 85 | 130 | 9.0 | 13.0 | 0.00 | 0.00 | 0.00 | 31 | 1010.2 |
| 20260906021538 | 86 | 128 | 11.0 | 14.0 | 0.00 | 0.00 | 0.00 | 30 | 1009.8 |
| 20260906020029 | 86 | 137 | 11.0 | 13.0 | 0.00 | 0.00 | 0.00 | 29 | 1009.5 |
| 20260906014528 | 87 | 132 | 12.0 | 14.0 | 0.00 | 0.00 | 0.00 | 28 | 1009.2 |
| 20260906013028 | 88 | 136 | 11.0 | 14.0 | 0.00 | 0.00 | 0.00 | 27 | 1009.1 |
| 20260906011528 | 89 | 137 | 13.0 | 17.0 | 0.00 | 0.00 | 0.00 | 25 | 1009.1 |
| 20260906010027 | 90 | 132 | 9.0 | 13.0 | 0.00 | 0.00 | 0.00 | 24 | 1008.9 |
| 20260906004525 | 91 | 140 | 16.0 | 20.0 | 0.00 | 0.00 | 0.00 | 23 | 1008.8 |
| 20260906003026 | 92 | 130 | 14.0 | 22.0 | 0.00 | 0.00 | 0.00 | 21 | 1008.6 |
| 20260906001541 | 93 | 142 | 15.0 | 21.0 | 0.00 | 0.00 | 0.00 | 20 | 1008.4 |
| 20260906000025 | 93 | 146 | 14.0 | 18.0 | 0.00 | 0.00 | 0.00 | 20 | 1008.3 |
| 20260905234523 | 94 | 147 | 16.0 | 23.0 | 0.00 | 0.00 | 0.00 | 20 | 1008.2 |
| 20260905233024 | 94 | 123 | 13.0 | 20.0 | 0.00 | 0.00 | 0.00 | 20 | 1008.0 |
| 20260905231527 | 95 | 165 | 14.0 | 23.0 | 0.00 | 0.00 | 0.00 | 19 | 1007.9 |
| 20260905230023 | 94 | 155 | 12.0 | 21.0 | 0.00 | 0.00 | 0.00 | 20 | 1007.8 |
| 20260905224524 | 95 | 99 | 15.0 | 21.0 | 0.00 | 0.00 | 0.00 | 19 | 1007.7 |
| 20260905223038 | 94 | 110 | 12.0 | 21.0 | 0.00 | 0.00 | 0.00 | 19 | 1007.8 |
| 20260905221522 | 95 | 172 | 12.0 | 20.0 | 0.00 | 0.00 | 0.00 | 19 | 1007.9 |
| 20260905220018 | 94 | 196 | 7.0 | 21.0 | 0.00 | 0.00 | 0.00 | 21 | 1008.0 |
| 20260905214516 | 95 | 175 | 6.0 | 13.0 | 0.00 | 0.00 | 0.00 | 21 | 1008.1 |
| 20260905213015 | 94 | 148 | 5.0 | 25.0 | 0.00 | 0.00 | 0.00 | 22 | 1008.4 |